TimeMDT,TemperatureF,Dew PointF,Humidity,Sea Level PressureIn,VisibilityMPH,Wind Direction,Wind SpeedMPH,Gust SpeedMPH,PrecipitationIn,Events,Conditions,WindDirDegrees,DateUTC
12:15 AM,71.6,62.6,73,30.01,10.0,SSE,11.5,18.4,N/A,,Clear,150,2013-09-19 06:15:00
12:35 AM,69.8,62.6,78,30.01,10.0,SSE,18.4,23.0,N/A,,Clear,150,2013-09-19 06:35:00
12:55 AM,69.8,62.6,78,30.01,10.0,SSE,16.1,-,N/A,,Clear,150,2013-09-19 06:55:00
1:15 AM,69.8,62.6,78,30.01,10.0,SSE,15.0,21.9,N/A,,Clear,150,2013-09-19 07:15:00
1:35 AM,68.0,62.6,83,30.01,10.0,SSE,12.7,-,N/A,,Clear,150,2013-09-19 07:35:00
1:55 AM,68.0,64.4,88,30.01,10.0,SSE,12.7,-,N/A,,Clear,150,2013-09-19 07:55:00
2:15 AM,68.0,64.4,88,30.01,10.0,SSE,13.8,-,N/A,,Clear,150,2013-09-19 08:15:00
2:35 AM,68.0,64.4,88,30.01,10.0,SSE,10.4,-,N/A,,Clear,150,2013-09-19 08:35:00
2:55 AM,68.0,64.4,88,30.00,10.0,SSE,13.8,-,N/A,,Scattered Clouds,150,2013-09-19 08:55:00
3:15 AM,68.0,64.4,88,30.00,10.0,SSE,15.0,-,N/A,,Mostly Cloudy,150,2013-09-19 09:15:00
3:35 AM,68.0,64.4,88,30.00,10.0,SE,11.5,17.3,N/A,,Overcast,140,2013-09-19 09:35:00
3:55 AM,68.0,64.4,88,29.99,10.0,SSE,16.1,-,N/A,,Overcast,150,2013-09-19 09:55:00
4:15 AM,68.0,64.4,88,29.99,10.0,SSE,16.1,-,N/A,,Overcast,160,2013-09-19 10:15:00
4:35 AM,68.0,64.4,88,29.99,10.0,SSE,18.4,-,N/A,,Overcast,160,2013-09-19 10:35:00
4:55 AM,68.0,64.4,88,29.98,10.0,SSE,16.1,19.6,N/A,,Overcast,150,2013-09-19 10:55:00
5:50 AM,68.0,64.4,88,30.00,10.0,SE,11.5,-,N/A,,Mostly Cloudy,130,2013-09-19 11:50:00
6:50 AM,68.0,64.4,88,30.02,10.0,SE,8.1,-,N/A,,Overcast,140,2013-09-19 12:50:00
7:50 AM,68.0,64.4,88,30.02,10.0,SE,10.4,-,N/A,,Mostly Cloudy,130,2013-09-19 13:50:00
8:50 AM,71.6,64.4,78,30.04,10.0,SE,12.7,19.6,N/A,,Overcast,140,2013-09-19 14:50:00
9:50 AM,71.6,64.4,78,30.05,10.0,SE,11.5,-,N/A,,Mostly Cloudy,130,2013-09-19 15:50:00
10:35 AM,69.8,66.2,88,30.05,7.0,SE,11.5,-,N/A,,Overcast,130,2013-09-19 16:35:00
10:50 AM,69.8,66.2,88,30.06,7.0,SE,11.5,-,N/A,,Overcast,130,2013-09-19 16:50:00
11:50 AM,69.8,66.2,88,30.04,5.0,ESE,11.5,-,N/A,Rain,Light Rain,120,2013-09-19 17:50:00
12:25 PM,71.6,68.0,88,30.03,10.0,SE,11.5,-,N/A,,Overcast,130,2013-09-19 18:25:00
12:50 PM,75.2,64.4,69,30.02,10.0,SE,13.8,-,N/A,,Overcast,140,2013-09-19 18:50:00
1:50 PM,75.2,64.4,69,30.00,10.0,SE,9.2,-,N/A,,Mostly Cloudy,130,2013-09-19 19:50:00
2:50 PM,73.4,66.2,78,29.99,8.0,East,16.1,-,N/A,,Overcast,100,2013-09-19 20:50:00
3:50 PM,71.6,64.4,78,29.99,10.0,East,17.3,23.0,N/A,,Overcast,100,2013-09-19 21:50:00
4:50 PM,69.8,64.4,83,29.99,10.0,East,15.0,21.9,N/A,,Mostly Cloudy,100,2013-09-19 22:50:00
5:50 PM,69.8,64.4,83,30.00,10.0,East,11.5,-,N/A,,Overcast,100,2013-09-19 23:50:00
6:15 PM,68.0,64.4,88,29.98,10.0,ESE,13.8,-,N/A,,Mostly Cloudy,120,2013-09-20 00:15:00
6:35 PM,68.0,64.4,88,29.99,10.0,ESE,12.7,-,N/A,,Scattered Clouds,120,2013-09-20 00:35:00
6:55 PM,68.0,62.6,83,29.98,10.0,SE,12.7,-,N/A,,Partly Cloudy,130,2013-09-20 00:55:00
7:15 PM,68.0,62.6,83,30.00,10.0,ESE,6.9,-,N/A,,Partly Cloudy,120,2013-09-20 01:15:00
7:35 PM,66.2,62.6,88,30.00,10.0,ESE,8.1,-,N/A,,Clear,120,2013-09-20 01:35:00
7:55 PM,66.2,62.6,88,30.00,10.0,ESE,9.2,-,N/A,,Clear,120,2013-09-20 01:55:00
8:55 PM,66.2,62.6,88,30.03,10.0,Calm,Calm,-,N/A,,Scattered Clouds,0,2013-09-20 02:55:00
9:15 PM,66.2,62.6,88,30.02,10.0,Calm,Calm,-,N/A,,Scattered Clouds,0,2013-09-20 03:15:00
9:35 PM,66.2,62.6,88,30.03,10.0,Calm,Calm,-,N/A,,Overcast,0,2013-09-20 03:35:00
9:55 PM,66.2,62.6,88,30.02,10.0,Calm,Calm,-,N/A,,Overcast,0,2013-09-20 03:55:00
10:15 PM,66.2,62.6,88,30.02,10.0,ESE,6.9,-,N/A,,Overcast,120,2013-09-20 04:15:00
10:35 PM,66.2,62.6,88,30.03,10.0,Calm,Calm,-,N/A,,Overcast,0,2013-09-20 04:35:00
10:55 PM,66.2,62.6,88,30.04,10.0,Calm,Calm,-,N/A,,Overcast,0,2013-09-20 04:55:00
11:15 PM,66.2,62.6,88,30.03,10.0,Calm,Calm,-,N/A,,Overcast,0,2013-09-20 05:15:00
11:35 PM,66.2,62.6,88,30.04,10.0,Calm,Calm,-,N/A,,Overcast,0,2013-09-20 05:35:00
11:55 PM,64.4,62.6,94,30.03,10.0,Calm,Calm,-,N/A,,Overcast,0,2013-09-20 05:55:00